Location: ??
(35.5653°N, 139.6194°E)
Time: 15:16:41
(UTC+00:00)

Cosmos 1606 - Pass Details

Date: 20 November 2019
Orbit: 504 x 528 km, 82.5° (Epoch: 14 December)

Event Time Altitude Azimuth Distance (km) Brightness Sun altitude
Rises 20:40:55 0° 344° (NNW) 2,623 5.9 -8.7°
Reaches altitude 10° 20:43:09 10° 336° (NNW) 1,737 5.0 -8.2°
Maximum altitude 20:46:41 37° 268° (W) 804 3.2 -7.6°
Drops below altitude 10° 20:50:13 10° 199° (SSW) 1,737 5.4 -6.9°
Sets 20:52:26 0° 191° (SSW) 2,624 6.4 -6.5°
